Weather Roundup
Issued by NWS

Home | Current Version | Previous Version | Graphics & Text | Print | Product List | Glossary Off
Versions: 1 2 3 4 5 6 7 8 9 10 11 12 13 14 15 16 17 18 19 20 21 22 23 24 25 26 27 28 29 30 31 32 33 34 35 36 37 38 39 40 41 42 43 44 45 46 47 48 49 50

000
NZUS93 KARX 071259
HRRWXR

CURRENT HOURLY OBSERVATIONS ACROSS
MUCH OF THE UPPER MISSISSIPPI VALLEY
NATIONAL WEATHER SERVICE LA CROSSE WI
700 AM CST WED DEC 07 2016


...SOUTHEAST MINNESOTA...


CITY           SKY/WX    TMP DP  RH WIND       PRES   REMARKS
ROCHESTER      FLURRIES  14   9  80 W21G26    30.01R WCI  -4
ROCHESTER/MAYO CLOUDY    15  10  81 W16G26    30.02R WCI  -1
WINONA         CLOUDY    19  12  73 W10G16    30.04R WCI   8
AUSTIN         MOCLDY    12   7  79 W13G21    30.05R WCI  -3
ALBERT LEA     CLEAR     16  10  79 W13G21    30.06R WCI   2
DODGE CENTER   FLURRIES  12   9  85 W22G29    30.01R WCI  -7
PRESTON        LGT SNOW  13   8  81 W16G26    30.03R WCI  -4
OWATONNA       FLURRIES  14   7  73 W18G24    30.04R WCI  -3
FARIBAULT      CLOUDY    16   9  73 MISG      30.04R
$$

...ELSEWHERE IN MINNESOTA...


CITY           SKY/WX    TMP DP  RH WIND       PRES   REMARKS
MINNEAPOLIS    FLURRIES  17   8  67 W16G25    29.98R WCI   2
INTNL FALLS    LGT SNOW  22  19  89 W10       29.58R VSB 3/4 WCI  11
DULUTH         LGT SNOW  15  10  80 W22G28    29.69R BLWGSNOWWCI  -3
RED WING       CLOUDY    18   9  68 W18G26    29.99R WCI   2
REDWOOD FALLS  CLOUDY    13   4  67 W23G31    30.06R WCI  -6
MANKATO        CLOUDY    13   6  74 W17G29    30.06R WCI  -4
WORTHINGTON    CLEAR      7   3  84 W22G29    30.10R WCI -14
FAIRMONT       CLEAR     11   5  77 W20       30.09R WCI  -7
$$

...SOUTHWEST WISCONSIN...


CITY           SKY/WX    TMP DP  RH WIND       PRES   REMARKS
LA CROSSE      CLOUDY    19  10  68 SW16      30.04R WCI   4
PRAIRIE DU CHI CLOUDY    19  10  70 W10G20    30.10R WCI   7
BOSCOBEL       CLOUDY    19  10  68 W12       30.08R WCI   7
LONE ROCK      PTCLDY    19  10  68 W15G28    30.05R WCI   5
PLATTEVILLE    NOT AVBL
FORT MC COY    FLURRIES  18  12  78 W12G20    30.01R WCI   5
MAUSTON-NEW LI CLOUDY    17  11  75 W12G20    29.99R WCI   5
VIROQUA        CLOUDY    15  10  81 W20G30    30.00R WCI  -2
WIS DELLS      CLOUDY    17  11  77 W15G24    29.97R WCI   3
$$

...ELSEWHERE IN WISCONSIN...


CITY           SKY/WX    TMP DP  RH WIND       PRES   REMARKS
MILWAUKEE      MOCLDY    23  14  68 W16G22    30.00R WCI  10
MADISON        MOCLDY    19  12  74 W9G21     30.01R WCI   8
GREEN BAY      PTCLDY    23  16  74 SW15G23   29.89R WCI  10
EAU CLAIRE     NOT AVBL
BLACK RVR FLS  FLURRIES  18  10  73 W9G16     29.98R WCI   6
MEDFORD        LGT SNOW  15  10  81 W21G29    29.83R WCI  -3
WAUSAU         LGT SNOW  17  11  77 W17G26    29.86R WCI   1
WIS RAPIDS     CLOUDY    18  12  77 W14G22    29.94R WCI   4
MARSHFIELD     FLURRIES  16  10  77 W18G28    29.88R WCI   0
RICE LAKE      FLURRIES  18  11  76 W16G22    29.89R WCI   3
$$

...NORTHEAST IOWA...


CITY           SKY/WX    TMP DP  RH WIND       PRES   REMARKS
WATERLOO       PTCLDY    16   9  74 W18       30.12R WCI   0
DUBUQUE        CLOUDY    17  12  80 W12       30.07F WCI   4
DECORAH        CLOUDY    14   9  79 W10G18    30.05R WCI   1
MASON CITY     CLEAR     12   7  80 W18       30.11R WCI  -6
CHARLES CITY   CLOUDY    14   9  79 W16       30.09S WCI  -2
OELWEIN        CLOUDY    16  10  79 W13G20    30.10R WCI   2
$$

...ELSEWHERE IN IOWA...


CITY           SKY/WX    TMP DP  RH WIND       PRES   REMARKS
DES MOINES     CLOUDY    18   9  68 NW15      30.18R WCI   4
IOWA CITY      PTCLDY    21  14  74 W10       30.16R WCI  10
FORT DODGE     PTCLDY    12   5  73 W14       30.16R WCI  -3
MARSHALLTOWN   CLOUDY    16  11  80 W12G21    30.14R WCI   3
CEDAR RAPIDS   PTCLDY    17  14  88 W12       30.12S WCI   4
$$

...NORTHERN ILLINOIS...


CITY           SKY/WX    TMP DP  RH WIND       PRES   REMARKS
CHICAGO-OHARE  CLOUDY    25  17  72 W13G22    30.06R WCI  14
CHICAGO-MIDWAY CLOUDY    27  17  66 W15       30.07R WCI  15
MOLINE         CLOUDY    24  15  68 W10       30.13R WCI  14
ROCKFORD       CLOUDY    22  14  71 W12G21    30.09R WCI  10
PEORIA         CLOUDY    28  17  63 NW8       30.13F WCI  20
$$

NOTE: "FAIR" INDICATES FEW OR NO CLOUDS BELOW 12,000 FEET WITH NO
SIGNIFICANT WEATHER AND/OR OBSTRUCTIONS TO VISIBILITY. WIND
SPEEDS ARE IN MILES-PER-HOUR.




USA.gov is the U.S. government's official web portal to all federal, state and local government web resources and services.